Tracking 34406 objects as of 15-Jun-2026
HD Live streaming from Space Station
objects crossing your sky now

DELTA 1 DEB

Track DELTA 1 DEB now!
10-day predictions


NORAD ID: 7195
Int'l Code: 1973-086FD
Perigee: 839.3 km
Apogee: 1,288.7 km
Inclination: 103.2 °
Period: 106.3 minutes
Semi major axis: 7434 km
RCS: 0.0204 m2 (small)
Launch date: November 6, 1973
Source: United States (US)
Launch site: AIR FORCE WESTERN TEST RANGE (AFWTR)

Note: This is SATELLITE DEBRIS
Your satellite tracking list
Your tracking list is empty




NASA's NSSDC Master Catalog

Two Line Element Set (TLE):
1 07195U 73086FD  26165.86934274  .00001187  00000-0  13834-2 0  9997
2 07195 103.1737 130.5319 0302249 356.4430   3.4547 13.54196392554250
Source of the keplerian elements: AFSPC